Weather History for Central Park, NY

Change the Weather History Date:

Sunday, December 9, 2012

  Actual Average Record
Temperature  
Mean Temperature 46 °F 40 °F  
Max Temperature 50 °F 45 °F 66 °F (1966)
Min Temperature 42 °F 34 °F 7 °F (1876)
Degree Days  
Heating Degree Days 19 25  
Month to date heating degree days 173 216  
Since 1 July heating degree days 1044 1049  
Cooling Degree Days 0 0  
Month to date cooling degree days 0 0  
Year to date cooling degree days 1277 1105  
Moisture  
Dew Point 41 °F    
Average Humidity 85    
Maximum Humidity 100    
Minimum Humidity 70    
Precipitation  
Precipitation 0.18 in 0.13 in 2.19 in (1973)
Month to date precipitation 0.79 1.25  
Year to date precipitation 34.50 47.19  
Snow  
Snow 0.00 in 0.10 in 5.80 in (2005)
Month to date snowfall 0.0 0.8  
Since 1 July snowfall 4.7 1.1  
Snow Depth 0.00 in    
Sea Level Pressure  
Sea Level Pressure 30.16 in    
Wind  
Wind Speed 7 mph (ENE)    
Max Wind Speed 15 mph    
Max Gust Speed 23 mph    
Visibility 6 miles    
Events Rain    
T = Trace of Precipitation, MM = Missing Value Source: NWS Daily Summary

Daily Weather History Graph

Daily Weather History Graph

Search for Another Location

Airport:

Trip Planner

Search our weather history database for the weather conditions in past years. The results will help you decide how hot, cold, wet, or windy it might be!

Date:

Astronomy

Dec. 09, 2012 Rise Set
Actual Time 7:08 AM EST 4:28 PM EST
Civil Twilight 6:37 AM EST 4:59 PM EST
Nautical Twilight 6:03 AM EST 5:33 PM EST
Astronomical Twilight 5:30 AM EST 6:06 PM EST
Moon 2:37 AM EST (12/9) 1:34 PM EST (12/9)
Length of Visible Light 10h 21m
Length of Day
9h 19m
Waning Crescent, 19% of the Moon is Illuminated
Dec 9
Waning Crescent
Dec 13
New
Dec 20
First Quarter
Dec 28
Full
Jan 4
Last Quarter

Hourly Weather History & Observations

Time (EST) Temp. Windchill Dew Point Humidity Pressure Visibility Wind Dir Wind Speed Gust Speed Precip Events Conditions
12:51 AM 50.0 °F - 48.0 °F 93% 30.01 in 4.0 mi Calm Calm - 0.00 in   Overcast
1:51 AM 48.9 °F - 46.9 °F 93% 30.04 in 4.0 mi Calm Calm - 0.00 in   Mostly Cloudy
2:51 AM 48.0 °F - 46.9 °F 96% 30.06 in 4.0 mi WNW 5.8 mph - N/A   Scattered Clouds
3:51 AM 48.0 °F - 46.0 °F 93% 30.07 in 5.0 mi Variable 3.5 mph - N/A   Clear
4:51 AM 48.0 °F - 45.0 °F 89% 30.09 in 8.0 mi Variable 4.6 mph - N/A   Mostly Cloudy
5:51 AM 48.0 °F - 43.0 °F 83% 30.14 in 10.0 mi NNE 8.1 mph - N/A   Clear
6:51 AM 46.9 °F - 44.1 °F 90% 30.17 in 8.0 mi NNE 8.1 mph - N/A   Scattered Clouds
7:51 AM 46.9 °F - 42.1 °F 83% 30.20 in 8.0 mi NNE 8.1 mph - N/A   Overcast
8:28 AM 46.9 °F - 42.1 °F 83% 30.23 in 10.0 mi NE 11.5 mph - N/A   Overcast
8:51 AM 45.0 °F 38.9 °F 37.9 °F 76% 30.23 in 10.0 mi NNE 12.7 mph 23.0 mph N/A   Mostly Cloudy
9:51 AM 45.0 °F 42.6 °F 37.0 °F 74% 30.25 in 10.0 mi Variable 4.6 mph - N/A   Overcast
10:51 AM 43.0 °F 37.2 °F 35.1 °F 74% 30.25 in 10.0 mi NE 10.4 mph 17.3 mph 0.00 in Rain Light Rain
11:51 AM 43.0 °F 37.7 °F 32.0 °F 65% 30.23 in 10.0 mi NE 9.2 mph - 0.01 in   Overcast
12:04 PM - - - N/A% - - North - - N/A   Unknown
12:51 PM 43.0 °F 41.3 °F 34.0 °F 71% 30.22 in 10.0 mi Variable 3.5 mph - 0.00 in   Overcast
1:51 PM 43.0 °F 38.8 °F 33.1 °F 68% 30.20 in 10.0 mi NE 6.9 mph - 0.00 in   Overcast
2:51 PM 43.0 °F 38.2 °F 34.0 °F 71% 30.21 in 10.0 mi ENE 8.1 mph - 0.00 in Rain Light Rain
3:51 PM 43.0 °F 37.2 °F 35.1 °F 74% 30.21 in 10.0 mi ENE 10.4 mph - 0.01 in   Overcast
4:13 PM 43.0 °F 36.8 °F 35.1 °F 74% 30.23 in 10.0 mi ENE 11.5 mph - N/A   Overcast
4:51 PM 43.0 °F 41.3 °F 37.0 °F 80% 30.20 in 8.0 mi Variable 3.5 mph - 0.00 in Rain Light Rain
5:04 PM - - - N/A% - - North - - N/A   Unknown
5:51 PM 42.1 °F 36.6 °F 39.9 °F 92% 30.20 in 6.0 mi ENE 9.2 mph - 0.03 in   Overcast
6:07 PM 42.1 °F 37.1 °F 39.9 °F 92% 30.22 in 5.0 mi ENE 8.1 mph - N/A   Overcast
6:51 PM 43.0 °F 38.8 °F 41.0 °F 93% 30.19 in 4.0 mi East 6.9 mph - N/A   Overcast
7:11 PM 43.0 °F 37.7 °F 41.0 °F 93% 30.20 in 3.0 mi East 9.2 mph 20.7 mph 0.01 in Rain Light Rain
7:44 PM 43.0 °F 38.2 °F 42.1 °F 97% 30.19 in 2.5 mi ENE 8.1 mph - 0.02 in   Overcast
7:51 PM 43.0 °F 38.8 °F 42.1 °F 97% 30.17 in 2.5 mi Variable 6.9 mph - 0.02 in Rain Light Rain
7:59 PM 43.0 °F 38.8 °F 42.1 °F 97% 30.18 in 3.0 mi East 6.9 mph - 0.00 in   Overcast
8:17 PM 44.1 °F 39.5 °F 43.0 °F 96% 30.17 in 2.5 mi East 8.1 mph - 0.01 in   Overcast
8:26 PM 44.1 °F 40.8 °F 43.0 °F 96% 30.17 in 3.0 mi Variable 5.8 mph - 0.01 in   Overcast
8:51 PM 44.1 °F 40.8 °F 43.0 °F 96% 30.13 in 4.0 mi Variable 5.8 mph - 0.01 in Rain Light Rain
9:51 PM 44.1 °F 38.6 °F 43.0 °F 96% 30.09 in 6.0 mi East 10.4 mph - 0.01 in Rain Light Rain
10:32 PM 44.1 °F 39.5 °F 43.0 °F 96% 30.10 in 2.5 mi NE 8.1 mph - 0.02 in Rain Light Rain
10:42 PM 43.0 °F 37.7 °F 42.1 °F 97% 30.07 in 3.0 mi ENE 9.2 mph - 0.02 in Rain Light Rain
10:51 PM 43.0 °F 37.2 °F 42.1 °F 97% 30.05 in 3.0 mi ENE 10.4 mph - 0.03 in Rain Light Rain
11:07 PM 43.0 °F 39.5 °F 42.1 °F 97% 30.09 in 2.0 mi Variable 5.8 mph - 0.00 in Rain Light Rain
11:30 PM 43.0 °F 38.2 °F 43.0 °F 100% 30.06 in 4.0 mi ENE 8.1 mph - 0.05 in Rain Light Rain